Location: Melbourne
(37.8170°S, 144.9670°E)
Time: 00:35:42
(UTC+11:00)

ISS - All Passes

Search period start: 10 December 2016 00:00
Search period end: 20 December 2016 00:00
Orbit: 401 x 410 km, 51.6° (Epoch: 09 December)

Date Brightness Start Highest point End Pass type
(mag) Time Alt. Az. Time Alt. Az. Time Alt. Az.
10 Dec - 03:50:18 10° NW 03:53:35 65° NE 03:56:54 10° SE visible
10 Dec - 05:27:58 10° WSW 05:30:22 18° SSW 05:32:47 10° SSE daylight
10 Dec - 08:44:57 10° S 08:45:49 11° SSE 08:46:40 10° SSE daylight
10 Dec - 10:19:54 10° SW 10:23:04 39° SE 10:26:12 10° ENE daylight
10 Dec - 11:56:56 10° W 11:59:22 19° NW 12:01:46 10° N daylight
11 Dec - 02:58:45 10° NNW 03:01:43 31° NE 03:04:43 10° ESE visible
11 Dec - 04:35:18 10° W 04:38:13 27° SSW 04:41:09 10° SSE visible
11 Dec - 09:28:12 10° SSW 09:30:59 24° SSE 09:33:44 10° E daylight
11 Dec - 11:04:27 10° WSW 11:07:33 38° NW 11:10:38 10° NNE daylight
12 Dec - 02:07:50 10° NNE 02:09:56 16° NE 02:12:01 10° E visible
12 Dec - 03:42:54 10° WNW 03:46:08 47° SW 03:49:24 10° SE visible
12 Dec - 05:22:01 10° SW 05:23:18 12° SSW 05:24:36 10° S visible
12 Dec - 08:36:35 10° SSW 08:38:47 16° SSE 08:40:58 10° ESE daylight
12 Dec - 10:12:19 10° SW 10:15:39 81° NW 10:18:56 10° NE daylight
13 Dec - 02:50:48 10° NW 02:54:07 86° NNE 02:57:29 10° SE visible
13 Dec - 04:28:52 10° WSW 04:31:01 16° SSW 04:33:11 10° SSE visible
13 Dec - 07:45:10 10° S 07:46:31 12° SSE 07:47:51 10° SE daylight
13 Dec - 09:20:24 10° SW 09:23:39 50° SE 09:26:52 10° ENE daylight
13 Dec - 10:57:54 10° W 10:59:50 15° NW 11:01:45 10° NNW daylight
14 Dec - 01:59:03 10° NNW 02:02:12 40° NE 02:05:22 10° ESE visible
14 Dec - 03:36:04 10° W 03:38:48 23° SSW 03:41:34 10° SSE visible
14 Dec - 08:28:36 10° SSW 08:31:33 28° SSE 08:34:29 10° E daylight
14 Dec - 10:05:06 10° WSW 10:08:01 29° NW 10:10:55 10° NNE daylight
15 Dec - 01:07:49 10° N 01:10:20 20° NE 01:12:53 10° E visible
15 Dec - 02:43:31 10° WNW 02:46:39 38° SSW 02:49:49 10° SE visible
15 Dec - 04:23:07 10° SSW 04:23:55 11° SSW 04:24:43 10° S visible
15 Dec - 07:36:54 10° SSW 07:39:21 19° SSE 07:41:47 10° ESE daylight
15 Dec - 09:12:50 10° WSW 09:16:07 61° NW 09:19:21 10° NE daylight
16 Dec - 00:18:06 10° NE 00:18:32 10° NE 00:18:58 10° ENE night (unlit)
16 Dec - 01:51:16 10° NW 01:54:35 72° SW 01:57:56 10° SE visible
16 Dec - 03:29:42 10° SW 03:31:35 14° SSW 03:33:27 10° SSE visible
16 Dec - 06:45:21 10° S 06:47:04 13° SSE 06:48:47 10° SE daylight
16 Dec - 08:20:47 10° SW 08:24:06 65° SE 08:27:23 10° ENE daylight
16 Dec - 09:59:06 10° WNW 10:00:11 11° NW 10:01:15 10° NW daylight
17 Dec - 00:59:19 10° NW 01:02:35 54° NE 01:05:52 10° ESE visible
17 Dec - 02:36:44 10° WSW 02:39:18 20° SSW 02:41:51 10° SSE visible
17 Dec - 05:54:16 10° S 05:54:42 10° SSE 05:55:08 10° SSE daylight
17 Dec - 07:28:54 10° SW 07:32:00 34° SSE 07:35:04 10° E daylight
17 Dec - 09:05:42 10° WSW 09:08:22 22° NW 09:10:59 10° N daylight
18 Dec - 00:07:48 10° N 00:10:39 26° NE 00:13:30 10° ESE night (unlit)
18 Dec - 01:44:03 10° W 01:47:04 31° SSW 01:50:07 10° SSE visible
18 Dec - 06:37:08 10° SSW 06:39:48 22° SSE 06:42:26 10° E daylight
18 Dec - 08:13:15 10° WSW 08:16:27 45° NW 08:19:36 10° NNE daylight
18 Dec - 23:17:04 10° NNE 23:18:47 13° NE 23:20:30 10° E night (unlit)
19 Dec - 00:51:38 10° WNW 00:54:55 56° SW 00:58:14 10° SE visible
19 Dec - 02:30:28 10° SW 02:32:01 13° SSW 02:33:35 10° S visible
19 Dec - 05:45:28 10° SSW 05:47:30 15° SSE 05:49:31 10° ESE daylight
19 Dec - 07:21:05 10° SW 07:24:26 85° SE 07:27:44 10° NE daylight
